ARIANE 5 DEB (SYLDA), 40735

Orbit data source: Space-Track

ARIANE 5 DEB (SYLDA), 40735 is space debris in HEO originally from a launch on Wed, 15 Jul 2015 UTC launched from the French Guiana (FRGUI). Debris objects in space refer to the collection of defunct objects orbiting the Earth. Examples of debris include non-operational satellites, rocket bodies, and fragments generated from explosions, collisions, or faulty payload assembly.

Loading next visibility...
Identifier
40735, 2015-034D
Orbit
HEO
Country
Flag of FRFR
Related business
Manufacturer
ADS/Bremen
Mission
Spacecraft
Bus & Motor
SYLDA 5, Unknown motor
Mass
440 kg wet, 440 kg dry
Launch date (UTC)
2015-07-15 (10 years ago)
Launch vehicle
Unknown
Launch site
French Guiana (FRGUI)
Object type
Payload
Rocket body
Debris
Shape & HBR
Cyl, 2.8 m
Radar Cross Section
27.391 m², Large (>1 m²)

Expand to show TLE details & history
Last TLE update: 23 hours ago

TLE from 23 hours ago
0 ARIANE 5 DEB (SYLDA)
1 40735U 15034D   25258.97116067  .00692081 -51903-6  91722-2 0  9995
2 40735   3.8477 132.6832 5241900  67.8187 338.6227  5.35887352109268
Epoch: 2025-09-15T23:18Z
TLE epoch observation values (Epoch: 2025-09-15T23:18:28.281Z)
Latitude
-0.00002°
Longitude
147.99689°
Altitude
1,960.661 km
Speed
8.167 km/s
True Right ascension
08h 51m 07s
True Declination
0° 00' 00"
Sunlit
Object was in daylight at epoch
Visualization orbit readout
Latitude
Unknown
Longitude
Unknown
Altitude
Unknown
Speed
Unknown
Apparent Right ascension
Unknown
Apparent Declination
Unknown
Sunlit
N/A
Visualization observer readout
Local Sidereal Time
14:42:41
Azimuth
Unknown
Elevation
Unknown
Doppler factor
Unknown
Orbital elements
Apogee altitude
14,654.185 km
Perigee altitude
187.573 km
Semi-major axis
13,799.016 km
Eccentricity
0.52419
Inclination
3.8477°
RAAN
132.6832°
Arg. of periapsis
67.8187°
True anomaly
292.23174°
Mean anomaly
338.6227°
Eccentric anomaly
318.86558°
Mean motion
1.33897 °/min
Orbital period
268.86 mins
BSTAR
0.0091722
Loading maneuver chart data...
Computing Atmospheric mass density...
Loading historical data...
Loading historical data...
Loading historical data...
Loading historical data...
Loading historical data...
Loading historical data...
Loading historical data...

Documentation

Showing up to 5 results
|